Regional Weather Roundup
Issued by NWS

Home | Current Version | Previous Version | Text Only | Print | Product List | Glossary On
Versions: 1 2 3 4 5 6 7 8 9 10 11 12 13 14 15 16 17 18 19 20 21 22 23 24 25 26 27 28 29 30 31 32 33 34 35 36 37 38 39 40 41 42 43 44 45 46 47 48 49 50
000
ASUS44 KLIX 232310
RWRLA
LOUISIANA WEATHER ROUNDUP
NATIONAL WEATHER SERVICE NEW ORLEANS LA
600 PM CDT WED APR 23 2014

NOTE: "FAIR" INDICATES FEW OR NO CLOUDS BELOW 12,000 FEET WITH NO
      SIGNIFICANT WEATHER AND/OR OBSTRUCTIONS TO VISIBILITY.
      SKY/WX - SKY CONDITION AND SIGNIFICANT WEATHER.
      TMP - AIR TEMPERATURE.    DP   - DEWPOINT TEMPERATURE.
      RH  - RELATIVE HUMIDITY.  PRES - PRESSURE.
      HX  - HEAT INDEX.         WCI  - WIND CHILL INDEX.

*  THESE STATIONS ARE NOT NWS OR FAA STATIONS AND ARE NOT UNDER
   NWS QUALITY CONTROL.

LAZ040-048-061>063-065-066-069-240000-
SOUTHEAST LOUISIANA

CITY           SKY/WX    TMP DP  RH WIND       PRES   REMARKS
N.O. AUDUBON     N/A     87  60  38 MISG        N/A
N.O. INTL ARPT MOSUNNY   81  52  36 NW5       29.89S
N.O. LAKEFRONT SUNNY     80  58  46 NW3       29.90F
N.O. DOWNTOWN* FAIR      82  52  34 NE3       29.90S
SLIDELL        SUNNY     81  54  39 SW6       29.88F
BATON ROUGE    SUNNY     85  52  32 CALM      29.87F
BOOTHVILLE     SUNNY     78  61  55 CALM      29.91F
BELLE CHASSE   PTSUNNY   81  60  48 SE8       29.89S
BOGALUSA*        N/A     84  54  35 CALM      29.90S
GALLIANO*      PTCLDY    80  64  58 S7        29.91S
NEW ROADS*     FAIR      81  54  39 N5        29.88S
GONZALES*      FAIR      83  54  37 CALM      29.87F
HAMMOND*       SUNNY     82  54  36 S6        29.90S
HOUMA*         MOSUNNY   79  61  53 S6        29.91S
PORT FOURCHON* CLEAR     75  64  69 S9        29.93S

$$

LAZ041-044-053-054-240000-
SOUTHWEST LOUISIANA

CITY           SKY/WX    TMP DP  RH WIND       PRES   REMARKS
LAKE CHARLES   SUNNY     77  63  61 S10       29.88S
LAFAYETTE      SUNNY     79  61  53 S6        29.88S
PATTERSON      SUNNY     79  64  61 SW10      29.93S
SALT POINT       N/A     78  67  68 VRB5      29.90S
NEW IBERIA     SUNNY     80  62  54 S10       29.89S
CHENAULT AIRPK MOSUNNY   79  61  53 S10       29.89S

$$

LAZ027-028-240000-
CENTRAL LOUISIANA

CITY           SKY/WX    TMP DP  RH WIND       PRES   REMARKS
FORT POLK      SUNNY     79  57  46 S7        29.86F
ALEXANDRIA INT MOSUNNY   81  54  39 SE5       29.85F
ALEXANDRIA     MOSUNNY   84  51  31 CALM      29.87F

$$

LAZ001-002-240000-
NORTHWEST LOUISIANA

CITY           SKY/WX    TMP DP  RH WIND       PRES   REMARKS
SHREVEPORT     MOSUNNY   83  58  42 S9        29.84F
BARKSDALE AFB  SUNNY     83  53  35 SE7       29.85F
DTN SHREVEPORT SUNNY     80  58  46 SE9       29.84F

$$

LAZ014-016-240000-
NORTHEAST LOUISIANA

CITY           SKY/WX    TMP DP  RH WIND       PRES   REMARKS
MONROE         SUNNY     80  47  31 E5        29.90F
TALLULAH       SUNNY     81  40  23 N5        29.89F

$$




USA.gov is the U.S. government's official web portal to all federal, state and local government web resources and services.